TISAT 1

Last updated on Thu Nov 21 2024 00:03:39 GMT+0000 (Coordinated Universal Time)

1 36799U 10035E 24324.65371899 .00016558 00000+0 10635-2 0 9997 2 36799 98.0704 221.2427 0006457 70.6544 289.5381 15.08515699780440
UTC large
Height (km)
Speed (km/s)
/
Latitude / Longitude
Inclination (degrees)
Orbital Period (minutes)
Azimuth
Elevation
Range (km)
Doppler Factor

Next 0 passes for location: London (51.5072 / 0.1276)

Sorry there are no passes over London.